Regional Weather Roundup
Issued by NWS

Home | Current Version | Previous Version | Text Only | Print | Product List | Glossary On
Versions: 1 2 3 4 5 6 7 8 9 10 11 12 13 14 15 16 17 18 19 20 21 22 23 24 25 26 27 28 29 30 31 32 33 34 35 36 37 38 39 40 41 42 43 44 45 46 47 48 49 50
000
ASUS43 KOAX 271310
RWRNE

WEATHER ROUNDUP FOR NEBRASKA
NATIONAL WEATHER SERVICE OMAHA NE
800 AM CDT WED AUG 27 2014

NOTES: SATELLITE DATA IS BEING USED TO AUGMENT CLOUD COVER ABOVE
       12000 FEET.
       "FAIR" INDICATES FEW OR NO CLOUDS BELOW 12,000 FEET WITH NO
       SIGNIFICANT WEATHER AND/OR OBSTRUCTIONS TO VISIBILITY.

  * THESE STATIONS DO NOT REPORT WEATHER SUCH AS RAIN...SNOW OR FOG.

NEZ001>004-019>022-054>056-271400-
NEBRASKA PANHANDLE

CITY           SKY/WX    TMP DP  RH WIND       PRES   REMARKS
SCOTTSBLUFF    CLOUDY    64  63  96 E8        30.13R
ALLIANCE       CLOUDY    62  61  96 NE8       30.14R FOG
CHADRON        CLOUDY    62  58  86 N5        30.13R
KIMBALL        FOG       61  61  99 CALM      30.15R VSB<1/4
SIDNEY         CLEAR     60  57  89 CALM      30.14S
$$

NEZ057>060-069>072-079>082-271400-
SOUTHWEST NEBRASKA

CITY           SKY/WX    TMP DP  RH WIND       PRES   REMARKS
NORTH PLATTE   CLOUDY    66  63  90 E3        30.13R
IMPERIAL       PTCLDY    63  61  93 SE8       30.12R
LEXINGTON      CLOUDY    68  67  96 N3        30.11R
MCCOOK         CLOUDY    67  66  97 SE9       30.13R
OGALLALA       PTCLDY    61  60  97 CALM      30.12R
$$

NEZ005>010-023>029-035>040-094-271400-
NORTH CENTRAL NEBRASKA

CITY           SKY/WX    TMP DP  RH WIND       PRES   REMARKS
VALENTINE      CLOUDY    68  67  96 E3        30.12R
AINSWORTH      CLOUDY    65  64  99 CALM      30.12S
BROKEN BOW     CLOUDY    69  68  96 CALM      30.12R FOG
O`NEILL        CLOUDY    68  67  97 SE8       30.14R
ORD            CLOUDY    67  66  97 E6        30.10F FOG
THEDFORD       CLOUDY    68  67  98 E9        30.13R
$$

NEZ041-046>049-061>064-073>077-083>087-271400-
SOUTH CENTRAL NEBRASKA

CITY           SKY/WX    TMP DP  RH WIND       PRES   REMARKS
GRAND ISLAND   CLOUDY    69  66  90 NE3       30.08F
AURORA         CLOUDY    67  67 100 NE6       30.08F
HASTINGS       CLOUDY    68  64  87 SE5       30.09R
HEBRON         CLOUDY    69  67  91 CALM      30.10R FOG
HOLDREGE       CLOUDY    67  65  94 CALM      30.10S
KEARNEY *      CLOUDY    66  64  94 S6        30.09R
YORK           CLOUDY    68 N/A N/A E7        30.10F FOG
$$

NEZ011>018-030>034-042>045-271400-
NORTHEAST NEBRASKA

CITY           SKY/WX    TMP DP  RH WIND       PRES   REMARKS
NORFOLK        TSTM      67  64  90 NW7       30.16R FOG
ALBION         CLOUDY    66  64  94 CALM      30.12F
BLAIR          CLOUDY    68  65  92 E9        30.12R
FREMONT        CLOUDY    68  65  92 E9        30.11S
TEKAMAH        CLOUDY    66  64  93 N5        30.12S
WAYNE          TSTM      63  62  96 E7        30.13R
$$

NEZ050>053-065>068-078-088>093-271400-
SOUTHEAST NEBRASKA

CITY           SKY/WX    TMP DP  RH WIND       PRES   REMARKS
LINCOLN        CLOUDY    70  67  90 CALM      30.11R
OMAHA EPPLEY   CLOUDY    70  64  81 SE6       30.13R THUNDER
BEATRICE       CLOUDY    71  70  97 CALM      30.10R
FALLS CITY     CLOUDY    70  68  93 S9        30.10R
NEBRASKA CITY  PTSUNNY   68  68 100 CALM      30.10R
PLATTSMOUTH    TSTM      68  66  93 E6        30.11R
$$

NEZ044-045-051>053-067-271400-
OMAHA AREA

CITY           SKY/WX    TMP DP  RH WIND       PRES   REMARKS
OMAHA EPPLEY   CLOUDY    70  64  81 SE6       30.13R THUNDER
BLAIR          CLOUDY    68  65  92 E9        30.12R
FREMONT        CLOUDY    68  65  92 E9        30.11S
MILLARD        TSTM      69  66  90 NE5       30.09F
OFFUTT AFB     TSTM      67  67 100 NE10      30.11R
PLATTSMOUTH    TSTM      68  66  93 E6        30.11R
WAHOO          CLOUDY    68  65  89 CALM      30.10R
$$



USA.gov is the U.S. government's official web portal to all federal, state and local government web resources and services.